Weather History for Park Rapids, MN

Change the Weather History Date:

Thursday, March 1, 2012

  Actual Average Record
Temperature  
Mean Temperature 30 °F -  
Max Temperature 34 °F 31 °F 59 °F (1992)
Min Temperature 26 °F 8 °F -36 °F (1962)
Degree Days  
Heating Degree Days 35    
Moisture  
Dew Point 26 °F    
Average Humidity 82    
Maximum Humidity 93    
Minimum Humidity 73    
Precipitation  
Precipitation 0.01 in - - ()
Sea Level Pressure  
Sea Level Pressure 29.72 in    
Wind  
Wind Speed 4 mph (South)    
Max Wind Speed 13 mph    
Max Gust Speed -    
Visibility 10 miles    
Events      
Averages and records for this station are not official NWS values.
T = Trace of Precipitation, MM = Missing Value Source: NWS Daily Summary

Daily Weather History Graph

Daily Weather History Graph

Search for Another Location

Airport:

Trip Planner

Search our weather history database for the weather conditions in past years. The results will help you decide how hot, cold, wet, or windy it might be!

Date:

Astronomy

Mar. 01, 2012 Rise Set
Actual Time 6:59 AM CST 6:06 PM CST
Civil Twilight 6:28 AM CST 6:37 PM CST
Nautical Twilight 5:53 AM CST 7:12 PM CST
Astronomical Twilight 5:18 AM CST 7:47 PM CST
Moon 11:09 AM CST (3/1) 2:16 AM CST (3/1)
Length of Visible Light 12h 08m
Length of Day
11h 07m
First Quarter, 57% of the Moon is Illuminated
Mar 1
First Quarter
Mar 8
Full
Mar 14
Last Quarter
Mar 22
New
Mar 30
First Quarter

Hourly Weather History & Observations

Time (CST) Temp. Windchill Dew Point Humidity Pressure Visibility Wind Dir Wind Speed Gust Speed Precip Events Conditions
12:53 AM 28.9 °F - 26.1 °F 89% 29.77 in 10.0 mi Calm Calm - N/A   Overcast
1:08 AM 28.4 °F - 26.6 °F 93% 29.71 in 10.0 mi Calm Calm - N/A   Overcast
1:53 AM 28.9 °F - 26.1 °F 89% 29.78 in 10.0 mi Calm Calm - N/A   Overcast
2:53 AM 26.6 °F - 24.8 °F 93% 29.74 in 10.0 mi Calm Calm - N/A   Overcast
3:53 AM 27.0 °F - 25.0 °F 92% 29.78 in 10.0 mi Calm Calm - N/A   Overcast
4:53 AM 28.4 °F - 24.8 °F 86% 29.72 in 10.0 mi Calm Calm - N/A   Overcast
5:53 AM 27.0 °F - 25.0 °F 92% 29.78 in 10.0 mi Calm Calm - N/A   Overcast
6:53 AM 26.6 °F - 24.8 °F 93% 29.71 in 10.0 mi Calm Calm - N/A   Overcast
7:53 AM 28.4 °F 22.2 °F 24.8 °F 86% 29.70 in 10.0 mi SE 5.8 mph - N/A   Overcast
8:53 AM 28.0 °F 22.8 °F 25.0 °F 88% 29.78 in 10.0 mi South 4.6 mph - N/A   Overcast
9:53 AM 28.9 °F 23.9 °F 25.0 °F 85% 29.79 in 10.0 mi South 4.6 mph - N/A   Overcast
10:23 AM 30.2 °F 23.4 °F 26.6 °F 86% 29.72 in 10.0 mi SSE 6.9 mph - N/A   Scattered Clouds
10:51 AM 30.2 °F 22.6 °F 26.6 °F 86% 29.72 in 10.0 mi South 8.1 mph - N/A   Mostly Cloudy
10:53 AM 30.9 °F 23.5 °F 26.1 °F 82% 29.78 in 10.0 mi South 8.1 mph - N/A   Mostly Cloudy
11:53 AM 32.0 °F 25.6 °F 26.1 °F 79% 29.79 in 10.0 mi SSW 6.9 mph - N/A   Overcast
12:01 PM 32.0 °F 24.8 °F 26.6 °F 80% 29.73 in 10.0 mi SSW 8.1 mph - N/A   Overcast
12:12 PM 33.8 °F 28.6 °F 26.6 °F 75% 29.72 in 10.0 mi South 5.8 mph - N/A   Overcast
12:44 PM 33.8 °F 28.6 °F 26.6 °F 75% 29.70 in 10.0 mi SSE 5.8 mph - N/A   Overcast
12:53 PM 33.1 °F 26.9 °F 26.1 °F 75% 29.75 in 10.0 mi SSE 6.9 mph - N/A   Overcast
1:53 PM 34.0 °F 28.0 °F 26.1 °F 73% 29.72 in 10.0 mi ESE 6.9 mph - N/A   Overcast
2:53 PM 33.8 °F 25.8 °F 26.6 °F 75% 29.66 in 10.0 mi SSE 10.4 mph - N/A   Overcast
3:53 PM 34.0 °F 25.5 °F 26.1 °F 73% 29.70 in 10.0 mi SSE 11.5 mph - N/A   Overcast
4:53 PM 33.8 °F 26.4 °F 26.6 °F 75% 29.65 in 10.0 mi SSE 9.2 mph - N/A   Overcast
5:53 PM 33.1 °F 25.5 °F 26.1 °F 75% 29.71 in 10.0 mi SSE 9.2 mph - N/A   Overcast
6:53 PM 33.1 °F 25.5 °F 26.1 °F 75% 29.70 in 10.0 mi SE 9.2 mph - N/A   Overcast
7:32 PM 33.8 °F 26.4 °F 26.6 °F 75% 29.65 in 10.0 mi SSE 9.2 mph - N/A   Overcast
7:44 PM 33.8 °F 27.0 °F 26.6 °F 75% 29.65 in 10.0 mi SSE 8.1 mph - N/A   Overcast
7:53 PM 33.1 °F 26.1 °F 27.0 °F 78% 29.71 in 10.0 mi South 8.1 mph - N/A   Overcast
8:53 PM 32.0 °F 23.6 °F 27.0 °F 82% 29.71 in 10.0 mi South 10.4 mph - 0.01 in   Overcast
9:13 PM 30.2 °F 20.2 °F 26.6 °F 86% 29.65 in 10.0 mi SSW 12.7 mph - N/A   Overcast
9:53 PM 30.9 °F 21.2 °F 27.0 °F 85% 29.71 in 10.0 mi SSW 12.7 mph - N/A   Overcast
10:53 PM 30.9 °F 21.7 °F 26.1 °F 82% 29.71 in 10.0 mi SSW 11.5 mph - N/A   Overcast
11:38 PM 30.2 °F 24.3 °F 26.6 °F 86% 29.64 in 9.0 mi SSW 5.8 mph - N/A   Overcast
11:53 PM 30.0 °F 23.2 °F 26.1 °F 85% 29.70 in 9.0 mi SSW 6.9 mph - N/A   Overcast